Date String (YYYY-MM-DD hh:mm:ss) UTC,Instrument flags,Ambient pressure (hPa),Sample flow (lpm),Bypass flow (lpm),Sample temperature (°C),Ambient temperature (°C),ASC tube jacket temperature (°C),LED temperature (°C),Box temperature (°C),Sample RH (%),Mass concentration (μg/m³),Mass concentration (μg/m³)
DateTimeUTC,F1_M11,P_M11,Q1_M11,Q2_M11,T1_M11,T2_M11,T3_M11,T4_M11,T5_M11,U1_M11,X0_M11,X2_M11
2021-08-14 11:00:00,,0834.1,5.01,0.00,30.0,29.2,00.0,39.0,31.9,29.9,0027.87,0013.03
2021-08-14 11:01:00,,0834.1,4.99,0.00,30.0,27.8,00.0,39.0,31.5,29.9,0027.53,0012.93
2021-08-14 11:02:00,,0834.1,5.00,0.00,29.8,26.5,00.0,39.0,31.2,30.0,0026.90,0012.88
2021-08-14 11:03:00,,0834.1,5.00,0.00,29.7,26.4,00.0,39.0,31.1,30.1,0026.47,0012.85
2021-08-14 11:04:00,,0834.1,5.01,0.00,29.6,26.8,00.0,38.9,31.2,30.4,0026.07,0012.80
2021-08-14 11:05:00,,0834.1,5.00,0.00,29.6,27.2,00.0,38.9,31.2,30.3,0025.83,0012.73
2021-08-14 11:06:00,,0834.1,4.98,0.00,29.6,27.5,00.0,38.8,31.2,30.3,0025.34,0012.60
2021-08-14 11:07:00,,0834.1,5.01,0.00,29.6,27.8,00.0,38.8,31.3,30.2,0025.00,0012.54
2021-08-14 11:08:00,,0834.1,5.00,0.00,29.6,28.0,00.0,38.8,31.4,30.1,0026.24,0012.48
2021-08-14 11:09:00,,0834.1,4.99,0.00,29.7,28.2,00.0,38.8,31.4,30.1,0026.24,0012.44
2021-08-14 11:10:00,,0834.1,5.01,0.00,29.7,28.4,00.0,38.8,31.5,30.0,0025.28,0012.34
2021-08-14 11:11:00,,0834.1,4.98,0.00,29.7,28.5,00.0,38.8,31.5,30.2,0024.69,0012.28
2021-08-14 11:12:00,,0834.2,5.02,0.00,29.7,28.6,00.0,38.8,31.5,30.0,0024.86,0012.25
2021-08-14 11:13:00,,0834.2,5.00,0.00,29.8,28.7,00.0,38.8,31.6,29.9,0024.27,0012.21
2021-08-14 11:14:00,,0834.2,4.99,0.00,29.8,28.7,00.0,38.8,31.6,30.0,0024.00,0012.17
2021-08-14 11:15:00,,0834.2,5.02,0.00,29.8,28.8,00.0,38.8,31.6,29.9,0025.37,0012.11
2021-08-14 11:16:00,,0834.2,4.99,0.00,29.8,28.9,00.0,38.9,31.7,29.8,0024.65,0012.11
2021-08-14 11:17:00,,0834.2,5.00,0.00,29.9,28.9,00.0,38.9,31.7,30.3,0024.67,0012.12
2021-08-14 11:18:00,,0834.2,4.99,0.00,29.9,29.0,00.0,38.9,31.7,30.5,0025.48,0012.11
2021-08-14 11:19:00,,0834.3,5.01,0.00,29.9,29.0,00.0,38.9,31.7,30.2,0025.72,0012.17
2021-08-14 11:20:00,,0834.2,5.00,0.00,29.9,29.1,00.0,38.9,31.8,29.8,0025.50,0012.19
2021-08-14 11:21:00,,0834.3,4.99,0.00,30.0,29.1,00.0,39.0,31.8,30.0,0024.76,0012.16
2021-08-14 11:22:00,,0834.3,5.00,0.00,30.0,29.2,00.0,39.0,31.9,29.6,0025.33,0012.20
2021-08-14 11:23:00,,0834.3,5.00,0.00,30.0,29.2,00.0,39.0,31.9,29.5,0025.12,0012.16
2021-08-14 11:24:00,,0834.3,4.99,0.00,30.0,29.2,00.0,39.0,31.9,29.6,0025.01,0012.16
2021-08-14 11:25:00,,0834.2,5.01,0.00,30.1,29.3,00.0,39.0,31.9,29.7,0025.17,0012.18
2021-08-14 11:26:00,,0834.3,4.98,0.00,30.1,28.9,00.0,39.1,31.8,29.5,0023.56,0012.18
2021-08-14 11:27:00,,0834.3,5.00,0.00,30.0,27.0,00.0,39.0,31.3,29.6,0023.53,0012.16
2021-08-14 11:28:00,,0834.3,5.00,0.00,29.8,26.3,00.0,39.0,31.0,29.7,0024.02,0012.12
2021-08-14 11:29:00,,0834.3,5.01,0.00,29.7,26.5,00.0,39.0,31.1,30.0,0024.43,0012.16
2021-08-14 11:30:00,,0834.3,4.99,0.00,29.6,26.9,00.0,38.9,31.1,30.1,0024.05,0012.11
2021-08-14 11:31:00,,0834.3,5.00,0.00,29.6,27.3,00.0,38.9,31.2,30.2,0023.66,0012.11
2021-08-14 11:32:00,,0834.3,5.01,0.00,29.6,27.6,00.0,38.9,31.3,30.1,0024.25,0012.16
2021-08-14 11:33:00,,0834.3,4.99,0.00,29.6,27.9,00.0,38.8,31.3,30.0,0024.26,0012.18
2021-08-14 11:34:00,,0834.3,5.02,0.00,29.7,28.1,00.0,38.8,31.4,30.0,0023.58,0012.17
2021-08-14 11:35:00,,0834.4,5.00,0.00,29.7,28.3,00.0,38.8,31.4,30.1,0023.46,0012.20
2021-08-14 11:36:00,,0834.4,4.99,0.00,29.7,28.4,00.0,38.8,31.5,30.1,0023.53,0012.18
2021-08-14 11:37:00,,0834.4,5.01,0.00,29.7,28.5,00.0,38.8,31.5,30.3,0024.50,0012.21
2021-08-14 11:38:00,,0834.4,5.01,0.00,29.8,28.6,00.0,38.8,31.5,30.3,0024.72,0012.25
2021-08-14 11:39:00,,0834.4,5.00,0.00,29.8,28.7,00.0,38.9,31.6,30.4,0024.19,0012.31
2021-08-14 11:40:00,,0834.4,4.99,0.00,29.8,28.8,00.0,38.9,31.6,30.7,0023.52,0012.36
2021-08-14 11:41:00,,0834.4,5.01,0.00,29.8,28.9,00.0,38.9,31.7,31.5,0022.57,0012.44
2021-08-14 11:42:00,,0834.5,4.99,0.00,29.9,28.9,00.0,38.9,31.7,31.0,0022.59,0012.53
2021-08-14 11:43:00,,0834.5,4.99,0.00,29.9,29.0,00.0,38.9,31.7,30.9,0022.48,0012.60
2021-08-14 11:44:00,,0834.4,5.00,0.00,29.9,29.0,00.0,38.9,31.7,30.9,0021.89,0012.68
2021-08-14 11:45:00,,0834.4,5.00,0.00,29.9,29.1,00.0,38.9,31.7,31.0,0022.58,0012.84
2021-08-14 11:46:00,,0834.5,5.01,0.00,30.0,29.1,00.0,39.0,31.7,31.0,0023.20,0012.99
2021-08-14 11:47:00,,0834.5,4.99,0.00,30.0,29.2,00.0,39.0,31.8,30.8,0023.25,0013.11
2021-08-14 11:48:00,,0834.5,5.00,0.00,30.0,29.2,00.0,39.0,31.9,30.8,0022.69,0013.18
2021-08-14 11:49:00,,0834.5,4.99,0.00,30.0,29.2,00.0,39.0,31.9,30.8,0022.79,0013.31
2021-08-14 11:50:00,,0834.5,5.00,0.00,30.0,29.3,00.0,39.1,31.9,30.7,0023.21,0013.40
2021-08-14 11:51:00,,0834.5,5.00,0.00,30.1,29.0,00.0,39.1,31.8,30.6,0023.46,0013.41
2021-08-14 11:52:00,,0834.5,4.99,0.00,30.0,27.3,00.0,39.0,31.4,30.5,0024.12,0013.38
2021-08-14 11:53:00,,0834.5,5.00,0.00,29.8,26.5,00.0,39.0,31.2,30.7,0024.22,0013.34
2021-08-14 11:54:00,,0834.4,5.02,0.00,29.8,26.6,00.0,39.0,31.2,31.1,0024.40,0013.23
2021-08-14 11:55:00,,0834.5,4.99,0.00,29.7,27.0,00.0,38.9,31.2,31.1,0025.20,0013.23
2021-08-14 11:56:00,,0834.5,5.00,0.00,29.7,27.4,00.0,38.9,31.3,31.1,0025.63,0013.17
2021-08-14 11:57:00,,0834.5,5.00,0.00,29.7,27.7,00.0,38.9,31.3,31.2,0025.69,0013.07
2021-08-14 11:58:00,,0834.6,5.01,0.00,29.7,27.9,00.0,38.9,31.4,31.2,0025.55,0013.03
2021-08-14 11:59:00,,0834.6,4.99,0.00,29.7,28.1,00.0,38.9,31.4,31.5,0025.59,0012.91
